Elsenborn, Belgium

3:47 AM CEST on March 26, 2017 (GMT +0200)
Elsenborn

Weather History for EBLB - October, 2012

Change the Weather History Date:

Wednesday, October 17, 2012

  Actual Average Record
Temperature  
Mean Temperature 48 °F -  
Max Temperature 55 °F 43 °F 60 °F (2001)
Min Temperature 42 °F 37 °F 32 °F (1996)
Degree Days  
Heating Degree Days 16    
Moisture  
Dew Point 45 °F    
Average Humidity 92    
Maximum Humidity 100    
Minimum Humidity 79    
Precipitation  
Precipitation 0.01 in - - ()
Sea Level Pressure  
Sea Level Pressure 29.78 in    
Wind  
Wind Speed 8 mph ()    
Max Wind Speed 14 mph    
Max Gust Speed -    
Visibility 6.2 miles    
Events Rain    
Averages and records for this station are not official NWS values.
T = Trace of Precipitation, MM = Missing Value Source: Averaged Metar Reports

Daily Weather History Graph

Daily Weather History Graph

Search for Another Location

Airport or City:

Trip Planner

Search our weather history database for the weather conditions in past years. The results will help you decide how hot, cold, wet, or windy it might be!

Date:

Astronomy

Oct. 17, 2012 Rise Set
Actual Time 8:01 AM CEST 6:38 PM CEST
Civil Twilight 7:28 AM CEST 7:11 PM CEST
Nautical Twilight 6:50 AM CEST 7:49 PM CEST
Astronomical Twilight 6:12 AM CEST 8:27 PM CEST
Moon 10:35 AM CEST (10/17) 7:40 PM CEST (10/17)
Length of Visible Light 11h 43m
Length of Day
10h 37m
Waxing Crescent, 5% of the Moon is Illuminated
Oct 17
Waxing Crescent
Oct 22
First Quarter
Oct 29
Full
Nov 7
Last Quarter
Nov 13
New

Hourly Weather History & Observations

Time (CEST) Temp. Windchill Dew Point Humidity Pressure Visibility Wind Dir Wind Speed Gust Speed Precip Events Conditions
12:25 AM 42.8 °F 40.1 °F 42.8 °F 100% 29.83 in 5.0 mi SSW 4.6 mph - N/A   Mostly Cloudy
12:33 AM 42.8 °F 38.6 °F 42.8 °F 100% 29.83 in 5.0 mi SSW 6.9 mph - N/A   Mostly Cloudy
12:53 AM 42.8 °F 38.6 °F 42.8 °F 100% 29.83 in 4.3 mi SSW 6.9 mph - N/A   Mostly Cloudy
12:59 AM 44.6 °F 41.4 °F 42.8 °F 93% 29.83 in 3.7 mi SSW 5.8 mph - N/A   Mostly Cloudy
1:25 AM 44.6 °F 41.4 °F 42.8 °F 93% 29.83 in 4.3 mi South 5.8 mph - N/A   Mostly Cloudy
1:28 AM 44.6 °F 41.4 °F 42.8 °F 93% 29.86 in 5.0 mi South 5.8 mph - N/A   Mostly Cloudy
1:34 AM 44.6 °F 42.2 °F 42.8 °F 93% 29.86 in 5.6 mi SSW 4.6 mph - N/A   Mostly Cloudy
1:40 AM 44.6 °F 41.4 °F 42.8 °F 93% 29.83 in 6.2 mi SSW 5.8 mph - N/A   Overcast
2:00 AM 44 °F - 42 °F 92% 29.87 in 7 mi SSW 6.7 mph - -   Scattered Clouds
2:25 AM 42.8 °F 40.1 °F 42.8 °F 100% 29.83 in 5.6 mi South 4.6 mph - N/A   Mostly Cloudy
3:13 AM 42.8 °F 39.3 °F 41.0 °F 93% 29.83 in 6.2 mi South 5.8 mph - N/A   Partly Cloudy
3:25 AM 42.8 °F 39.3 °F 41.0 °F 93% 29.80 in 6.2 mi South 5.8 mph - N/A   Partly Cloudy
3:58 AM 42.8 °F 38.6 °F 41.0 °F 93% 29.80 in 6.2 mi South 6.9 mph - N/A   Mostly Cloudy
4:08 AM 42.8 °F 37.0 °F 41.0 °F 93% 29.80 in 6.2 mi South 10.4 mph - N/A   Scattered Clouds
4:14 AM 42.8 °F 37.5 °F 41.0 °F 93% 29.80 in 6.2 mi South 9.2 mph - N/A   Scattered Clouds
4:25 AM 42.8 °F 37.0 °F 41.0 °F 93% 29.80 in 6.2 mi SSE 10.4 mph - N/A   Scattered Clouds
4:28 AM 42.8 °F 37.0 °F 41.0 °F 93% 29.80 in 6.2 mi SSE 10.4 mph - N/A   Mostly Cloudy
4:43 AM 42.8 °F 37.0 °F 41.0 °F 93% 29.80 in 6.2 mi South 10.4 mph - N/A   Mostly Cloudy
5:00 AM 43 °F - 41 °F 90% 29.83 in 8 mi South 11.2 mph - -   Scattered Clouds
5:25 AM 42.8 °F 37.5 °F 41.0 °F 93% 29.77 in 6.2 mi SSE 9.2 mph - N/A   Mostly Cloudy
5:49 AM 42.8 °F 37.5 °F 41.0 °F 93% 29.77 in 6.2 mi SSE 9.2 mph - N/A   Mostly Cloudy
6:25 AM 42.8 °F 36.6 °F 42.8 °F 100% 29.74 in 5.6 mi South 11.5 mph - N/A   Mostly Cloudy
7:25 AM 44.6 °F 38.4 °F 42.8 °F 93% 29.74 in - South 12.7 mph - N/A   Mostly Cloudy
7:29 AM 44.6 °F 38.8 °F 44.6 °F 100% 29.74 in - South 11.5 mph - N/A   Mostly Cloudy
8:00 AM 44 °F - 43 °F 97% 29.78 in 2 mi South 13.4 mph - -   Mist
8:09 AM 44.6 °F 39.2 °F 42.8 °F 93% 29.74 in 2.2 mi South 10.4 mph - N/A   Mostly Cloudy
8:25 AM 44.6 °F 38.8 °F 42.8 °F 93% 29.74 in 2.5 mi South 11.5 mph - N/A   Mostly Cloudy
8:44 AM 44.6 °F 38.1 °F 44.6 °F 100% 29.74 in 3.7 mi South 13.8 mph - N/A   Mostly Cloudy
9:25 AM 46.4 °F 40.7 °F 44.6 °F 93% 29.74 in 3.7 mi South 12.7 mph - N/A   Mostly Cloudy
9:52 AM 46.4 °F 40.4 °F 44.6 °F 93% 29.74 in 3.7 mi South 13.8 mph - N/A   Mostly Cloudy
10:25 AM 46.4 °F 41.1 °F 44.6 °F 93% 29.74 in 4.3 mi South 11.5 mph - N/A   Mostly Cloudy
11:00 AM 47 °F - 46 °F 94% 29.77 in 4 mi South 11.2 mph - -   Overcast
11:25 AM 48.2 °F - 46.4 °F 93% 29.74 in 5.0 mi South 13.8 mph - N/A   Mostly Cloudy
11:29 AM 48.2 °F - 46.4 °F 93% 29.74 in 6.2 mi South 12.7 mph - N/A   Mostly Cloudy
11:39 AM 50.0 °F - 46.4 °F 87% 29.74 in 6.2 mi South 13.8 mph - N/A   Mostly Cloudy
12:25 PM 50.0 °F - 46.4 °F 87% 29.74 in 6.2 mi South 9.2 mph - N/A   Mostly Cloudy
1:25 PM 51.8 °F - 46.4 °F 82% 29.77 in 6.2 mi SSW 11.5 mph - N/A   Mostly Cloudy
1:59 PM 51.8 °F - 48.2 °F 88% 29.77 in 6.2 mi SW 9.2 mph - N/A   Mostly Cloudy
2:00 PM 52 °F - 47 °F 79% 29.77 in 19 mi SW 8.9 mph - -   Overcast
2:25 PM 51.8 °F - 48.2 °F 88% 29.77 in 6.2 mi SSW 10.4 mph - N/A   Mostly Cloudy
2:53 PM 53.6 °F - 50.0 °F 88% 29.77 in 6.2 mi SSW 10.4 mph - N/A   Mostly Cloudy
3:25 PM 53.6 °F - 50.0 °F 88% 29.77 in 6.2 mi South 10.4 mph - N/A Rain Light Rain Showers
4:25 PM 51.8 °F - 50.0 °F 94% 29.77 in 6.2 mi South 12.7 mph - N/A   Mostly Cloudy
5:00 PM 53 °F - 50 °F 86% 29.76 in 16 mi South 11.2 mph - -   Partly Cloudy
5:25 PM 51.8 °F - 50.0 °F 94% 29.77 in 6.2 mi South 11.5 mph - N/A   Drizzle
5:39 PM 51.8 °F - 51.8 °F 100% 29.77 in 6.2 mi SSW 9.2 mph - N/A Rain Light Rain Showers
5:45 PM 51.8 °F - 50.0 °F 94% 29.77 in 6.2 mi SSW 9.2 mph - N/A Rain Light Rain Showers
6:25 PM 51.8 °F - 50.0 °F 94% 29.77 in 6.2 mi South 9.2 mph - N/A   Mostly Cloudy
7:25 PM 51.8 °F - 50.0 °F 94% 29.77 in 6.2 mi South 4.6 mph - N/A   Scattered Clouds
8:00 PM 53 °F - 50 °F 87% 29.77 in 18 mi South 8.9 mph - -   Clear
8:25 PM 53.6 °F - 50.0 °F 88% 29.77 in 6.2 mi South 10.4 mph - N/A   Mostly Cloudy
9:25 PM 55.4 °F - 51.8 °F 88% 29.74 in 6.2 mi South 11.5 mph - N/A   Mostly Cloudy
10:25 PM 53.6 °F - 51.8 °F 94% 29.77 in 6.2 mi South 10.4 mph - N/A   Partly Cloudy
11:00 PM 54 °F - 51 °F 85% 29.75 in 22 mi South 11.2 mph - -   Scattered Clouds
11:25 PM 53.6 °F - 50.0 °F 88% 29.77 in 6.2 mi South 11.5 mph - N/A   Mostly Cloudy